Location: Devore Heights
(34.2372°N, 117.4156°W)
Time: 23:35:32
(UTC+00:00)

Transit 4A - Pass Details

Date: 18 September 2024
Orbit: 864 x 978 km, 66.8° (Epoch: 13 October)

Event Time Altitude Azimuth Distance (km) Brightness Sun altitude
Rises 19:22:04 0° 331° (NNW) 3,621 10.7 56.8°
Reaches altitude 10° 19:24:35 10° 330° (NNW) 2,687 10.1 56.9°
Maximum altitude 19:30:52 76° 246° (WSW) 1,000 9.3 57.1°
Drops below altitude 10° 19:37:13 10° 162° (SSE) 2,715 11.0 57.2°
Sets 19:39:47 0° 161° (SSE) 3,661 11.5 57.2°
